Regional Weather Roundup
Issued by NWS State College, PA

Home | Current Version | Previous Version | Graphics & Text | Print | Product List | Glossary On
Versions: 1 2 3 4 5 6 7 8 9 10 11 12 13 14 15 16 17 18 19 20 21 22 23 24 25 26 27 28 29 30 31 32 33 34 35 36 37 38 39 40 41 42 43 44 45 46 47 48 49 50
000
ASUS41 KCTP 301503
RWRCTP

REGIONAL WEATHER ROUNDUP
NATIONAL WEATHER SERVICE STATE COLLEGE PA
1100 AM EDT SAT JUL 30 2016

Note: "fair" indicates few or no clouds below 12,000 feet with no
significant weather and/or obstructions to visibility.

* = STATION THAT DOES NOT REPORT PRECIPITATION /E.G. RAIN...SNOW...ETC/
    THUNDER OR FOG.

PAZ002>004-007>009-013>016-020>023-029>032-301600-
WESTERN PENNSYLVANIA

CITY           SKY/WX    TMP DP  RH WIND       PRES   REMARKS
ERIE           CLOUDY    75  66  73 E9        29.98R
MEADVILLE      PTSUNNY   69  64  84 E9        30.00R
FRANKLIN*      CLOUDY    66  64  94 E8        30.02S
NEW CASTLE     RAIN      69  68  96 CALM      30.00R FOG
BEAVER COUNTY  RAIN      68  68 100 N3        30.00R
BUTLER*        CLOUDY    70  66  88 E7        30.02R
PITTSBURGH INT RAIN      70  67  90 CALM      29.98S FOG
PITTSBURGH     HVY RAIN  70  66  87 E7        29.98R VSB 1/2
INDIANA*       CLOUDY    68  68 100 CALM      30.05R FOG
LATROBE        RAIN      68  68 100 CALM      30.01R FOG
WASHINGTON CO* CLOUDY    72  68  88 CALM      29.99R
$$

PAZ004>006-010>012-017>019-024>028-033>037-041-042-045-046-049>053-301600-
CENTRAL PENNSYLVANIA

CITY           SKY/WX    TMP DP  RH WIND       PRES   REMARKS
BRADFORD       RAIN      62  60  93 N5        30.07R FOG
DUBOIS         CLOUDY    69  63  81 SE5       30.02R
CLEARFIELD     LGT RAIN  67  62  84 NE5       30.03S
JOHNSTOWN      LGT RAIN  68  64  87 NE5       30.04R FOG
ALTOONA        CLOUDY    70  69  97 VRB3      30.02S FOG
STATE COLLEGE  DRIZZLE   70  66  88 CALM      30.02S
WILLIAMSPORT   MOSUNNY   80  62  54 SE6       29.98S
SELINSGROVE    CLOUDY    79  71  76 SE5       29.99S
FT INDIANTOWN  CLOUDY    79  71  75 E5        29.99F
CAPITAL CITY   CLOUDY    81  73  76 E7        29.98S HAZE
HARRISBURG     LGT RAIN  80  75  84 SE5       29.97F
YORK           CLOUDY    82  74  76 SE7       29.99S
$$

PAZ038>040-043-044-047-048-054-055-060>062-067>071-301600-
EASTERN PENNSYLVANIA

CITY           SKY/WX    TMP DP  RH WIND       PRES   REMARKS
SCRANTON       PTSUNNY   83  65  54 N5        30.01S
MOUNT POCONO   SUNNY     73  64  73 E9        30.08S
ALLENTOWN      MOSUNNY   83  71  67 VRB3      30.01S
QUAKERTOWN*    PTSUNNY   82  72  69 CALM      30.02S
READING        MOSUNNY   84  73  69 S7        29.98F
LANCASTER      CLOUDY    80  73  79 SE5       29.99F HAZE
COATESVILLE    PTSUNNY   79  75  89 CALM      30.03S
POTTSTOWN      CLOUDY    83  74  74 VRB5      30.01S
BLUE BELL      CLOUDY    82  73  74 S3        30.00S
DOYLESTOWN     PTSUNNY   80  74  81 CALM      30.00S
WILLOW GROVE   NOT AVBL
NORTH PHILA    PTSUNNY   84  74  71 SE3       30.01S
PHILADELPHIA   CLOUDY    84  74  71 SW3       30.00R
$$




USA.gov is the U.S. government's official web portal to all federal, state and local government web resources and services.